sat.trackr.live / text

‹ back to catalog

STARLINK-1543

NORAD 46053 · 2020-055AC

PAYLOAD ACTIVE UNKNOWN

§ Identity

Operator
Country
US
Launch date
2020-08-07
Launch site
AFETR
Launch vehicle
Mass (kg)
RCS (m²)

Purposes: comms

External: N2YO · Heavens-Above · Gunter

§ Orbital elements

Epoch: 2026-09-19T13:56:10.030560Z

Period
94.01 min
Inclination
53.1611°
Eccentricity
0.0001469
Mean motion
15.31717420 rev/d
Perigee alt
469.7 km
Apogee alt
471.7 km
Semi-major
6,848.8 km
B*
7.0844e-5
RAAN
291.6879°
Arg perigee
77.6513°
Mean anomaly
282.4653°
Rev number
33,878

§ Raw data

STARLINK-15431 46053U 20055AC  26262.58067165  .00001835  00000+0  70844-4 0  99992 46053  53.1611 291.6879 0001469  77.6513 282.4653 15.31717420338788

JSON: /api/v1/satellites/46053 · /tle

For live sub-satellite position, see the globe view (requires WebGL).

§ Visibility from observer

Set your observer location to see the next 7 days of passes ≥ 10°. The values pass through the URL so the page stays shareable.

No JS? Fill the form by hand. The geolocation button needs JavaScript.